FW2270 Weather Reports


Display with metric or nautical units.
time (UTC)temp
F
wind
direction
speed
MPH
gust
MPH
rain 1hr
in
rain 24hr
in
rain mn
in
humidity
%
barometer
mb
20260831022416 59 279 3.0 9.0 0.00 0.00 0.00 85 1012.8
20260831021452 60 293 2.0 9.0 0.00 0.00 0.00 84 1012.8
20260831020443 62 310 1.0 9.0 0.00 0.00 0.00 81 1013.0
20260831015414 62 250 4.0 10.0 0.00 0.00 0.00 80 1012.9
20260831014426 64 284 3.0 10.0 0.00 0.00 0.00 78 1013.1
20260831013423 64 284 4.0 10.0 0.00 0.00 0.00 76 1013.0
20260831012435 65 260 8.0 15.0 0.00 0.00 0.00 75 1013.0
20260831011446 65 251 6.0 14.0 0.00 0.00 0.00 74 1013.0
20260831010418 66 270 6.0 13.0 0.00 0.00 0.00 73 1013.1
20260831005415 66 272 7.0 12.0 0.00 0.00 0.00 72 1013.1
20260831004428 67 268 7.0 15.0 0.00 0.00 0.00 72 1013.1
20260831003441 67 267 8.0 16.0 0.00 0.00 0.00 71 1013.1
20260831002414 68 262 7.0 12.0 0.00 0.00 0.00 69 1013.1
20260831001451 69 307 6.0 10.0 0.00 0.00 0.00 68 1013.3
20260831000425 70 290 6.0 9.0 0.00 0.00 0.00 66 1013.3
20260830235417 70 303 5.0 11.0 0.00 0.00 0.00 64 1013.4
20260830234414 70 295 6.0 13.0 0.00 0.00 0.00 63 1013.4
20260830233450 71 271 6.0 14.0 0.00 0.00 0.00 62 1013.3
20260830232423 72 277 4.0 14.0 0.00 0.00 0.00 61 1013.2
20260830231436 73 293 6.0 15.0 0.00 0.00 0.00 59 1013.3
20260830230449 73 300 6.0 14.0 0.00 0.00 0.00 59 1013.2
20260830225423 73 315 7.0 13.0 0.00 0.00 0.00 59 1013.2
20260830224417 73 305 7.0 14.0 0.00 0.00 0.00 59 1013.3
20260830223452 73 305 7.0 13.0 0.00 0.00 0.00 58 1013.5
20260830222425 74 327 7.0 14.0 0.00 0.00 0.00 58 1013.7
20260830221422 75 323 5.0 14.0 0.00 0.00 0.00 58 1013.8
20260830220415 75 320 4.0 14.0 0.00 0.00 0.00 58 1013.8
20260830215428 76 328 6.0 11.0 0.00 0.00 0.00 57 1013.9
20260830214447 77 336 5.0 14.0 0.00 0.00 0.00 57 1014.0
20260830213439 77 288 2.0 10.0 0.00 0.00 0.00 57 1014.2
20260830212433 78 272 6.0 9.0 0.00 0.00 0.00 56 1014.5
20260830211426 78 283 4.0 9.0 0.00 0.00 0.00 57 1014.5
20260830210444 78 274 4.0 12.0 0.00 0.00 0.00 57 1014.5
20260830205415 77 246 2.0 11.0 0.00 0.00 0.00 58 1014.6
20260830103434 51 260 0.0 0.0 0.00 0.00 0.00 94 1014.1
20260830102428 51 260 0.0 0.0 0.00 0.00 0.00 94 1014.1
20260830101423 51 260 0.0 0.0 0.00 0.00 0.00 94 1014.1
20260830100416 51 260 0.0 2.0 0.00 0.00 0.00 94 1014.2
20260830095431 51 275 0.0 0.0 0.00 0.00 0.00 93 1014.2
20260830094446 51 275 1.0 2.0 0.00 0.00 0.00 93 1014.2
20260830093418 52 275 0.0 1.0 0.00 0.00 0.00 93 1014.2
20260830092416 52 275 0.0 4.0 0.00 0.00 0.00 93 1014.2
20260830091430 52 284 0.0 2.0 0.00 0.00 0.00 93 1014.2
20260830090423 53 281 0.0 3.0 0.00 0.00 0.00 92 1014.2
20260830085415 53 281 2.0 6.0 0.00 0.00 0.00 92 1014.2
20260830084432 53 263 4.0 5.0 0.00 0.00 0.00 93 1014.2
20260830083425 53 265 0.0 0.0 0.00 0.00 0.00 92 1014.3
20260830082419 53 265 1.0 3.0 0.00 0.00 0.00 92 1014.3
20260830081418 53 264 0.0 1.0 0.00 0.00 0.00 92 1014.3
20260830080433 53 265 0.0 4.0 0.00 0.00 0.00 92 1014.3
20260830075425 54 264 1.0 6.0 0.00 0.00 0.00 92 1014.4
20260830074419 54 263 3.0 5.0 0.00 0.00 0.00 91 1014.3
20260830073417 54 260 0.0 3.0 0.00 0.00 0.00 91 1014.4
20260830072429 54 260 3.0 6.0 0.00 0.00 0.00 91 1014.4
20260830071423 54 265 4.0 5.0 0.00 0.00 0.00 91 1014.4
20260830070417 55 260 5.0 6.0 0.00 0.00 0.00 91 1014.4
20260830065433 55 273 4.0 6.0 0.00 0.00 0.00 91 1014.4
20260830064426 55 287 3.0 6.0 0.00 0.00 0.00 91 1014.4
20260830063420 55 266 4.0 7.0 0.00 0.00 0.00 91 1014.3
20260830062455 55 268 4.0 6.0 0.00 0.00 0.00 91 1014.4
20260830061452 55 270 0.0 2.0 0.00 0.00 0.00 90 1014.5
20260830060425 56 270 2.0 6.0 0.00 0.00 0.00 90 1014.5
20260830055417 56 270 4.0 8.0 0.00 0.00 0.00 90 1014.6
20260830054451 56 263 4.0 8.0 0.00 0.00 0.00 90 1014.6
20260830053427 56 265 4.0 7.0 0.00 0.00 0.00 90 1014.6
20260830052421 56 263 5.0 8.0 0.00 0.00 0.00 89 1014.5
20260830051414 56 257 5.0 6.0 0.00 0.00 0.00 89 1014.6
20260830050431 56 265 4.0 7.0 0.00 0.00 0.00 88 1014.5
20260830045425 57 263 5.0 6.0 0.00 0.00 0.00 88 1014.5
20260830044438 57 265 3.0 6.0 0.00 0.00 0.00 87 1014.5
20260830043432 57 263 2.0 7.0 0.00 0.00 0.00 87 1014.3
20260830042451 57 260 5.0 7.0 0.00 0.00 0.00 87 1014.4
20260830041423 57 271 5.0 8.0 0.00 0.00 0.00 86 1014.3
20260830040437 58 267 5.0 8.0 0.00 0.00 0.00 85 1014.2
20260830035430 58 274 5.0 8.0 0.00 0.00 0.00 84 1014.1
20260830034428 59 260 5.0 8.0 0.00 0.00 0.00 83 1013.8
20260830033422 59 265 4.0 7.0 0.00 0.00 0.00 81 1013.7
20260830032434 60 272 3.0 7.0 0.00 0.00 0.00 79 1013.6
20260830031428 61 259 4.0 6.0 0.00 0.00 0.00 77 1013.4
20260830030446 62 270 3.0 7.0 0.00 0.00 0.00 75 1013.5
20260830025415 63 268 4.0 6.0 0.00 0.00 0.00 73 1013.4
20260830024428 64 277 0.0 4.0 0.00 0.00 0.00 70 1013.3
20260830023427 67 276 1.0 5.0 0.00 0.00 0.00 66 1013.2